{"data":{"norad_id":56518,"epoch":"2026-05-25T00:30:23.280192Z","epoch_age_seconds":76314,"freshness":"FRESH","line1":"1 56518U 23065R   26145.02110278 -.00003443  00000+0 -11543-3 0  9992","line2":"2 56518  43.0051 141.4017 0002851 283.1369  76.9164 15.27632571168272","mean_motion":15.27632571,"eccentricity":0.0002851,"inclination_deg":43.0051,"raan_deg":141.4017,"arg_perigee_deg":283.1369,"mean_anomaly_deg":76.9164,"bstar":-0.00011543,"rev_number":16827,"period_min":94.263504676217,"perigee_km":480.93560478989,"apogee_km":484.84776334554,"semimajor_km":6861.0286840677,"source":"CELESTRAK","updated_at":"2026-05-25T13:38:18.108333Z"}}